Flag for U.S.A. Weather past 2 weeks in Wainwright, Alaska, U.S.A.

Now
20 °F

More clouds than sun.


Feels Like: 13 °F
Forecast: 14 / 21 °F
Wind: 5 mph from South

Location: Wainwright Distant Early Warning

Current Time: Apr 26, 2015 at 12:06:58 PM

Latest Report: Apr 26, 2015 at 10:53 AM


Visibility: 10 mi

Pressure: 29.94 "Hg

Humidity: 89%

Dew point: 17 °F

Location of WainwrightLocation

Historic Weather in Wainwright — Graph

°F

Wainwright temperature yesterday

Maximum temperature yesterday: 23 °F (at 1:53 PM)
Minimum temperature yesterday: 16 °F (at 12:53 AM)
Average temperature yesterday: 20 °F

Past Weeks' High & Low Weather Summary

 TemperatureHumidityPressure
High31 °F (Apr 20, 6:53 PM)96% (Apr 21, 6:53 AM)30.14 "Hg (Apr 21, 6:53 AM)
Low-16 °F (Apr 14, 5:53 AM)65% (Apr 18, 5:53 AM)29.43 "Hg (Apr 20, 2:53 AM)
Average10 °F82%29.80 "Hg
* Reported Apr 11 10:53 AM — Apr 26 10:53 AM, Wainwright, Weather by CustomWeather, © 2015

Note: Actual official high and low records may vary slightly from our data, if they occured in-between our weather recording intervals... More about our weather records

Advertising

Wainwright weather history for previous 24 hours

 ConditionsComfort  
Time TempWeatherWind HumidityBarometerVisibility
10:53 AM
Sun, Apr 26
20 °FMore clouds than sun.5 mph89%29.94 "Hg10 mi
9:53 AM19 °FOvercast.5 mph88%29.94 "Hg10 mi
8:53 AM19 °FOvercast.No wind88%29.94 "Hg9 mi
7:53 AM18 °FOvercast.No wind92%29.94 "Hg10 mi
6:53 AM19 °FLow clouds.3 mph85%29.95 "Hg10 mi
5:53 AM19 °FMostly cloudy.7 mph85%29.94 "Hg10 mi
4:53 AM20 °FOvercast.8 mph85%29.93 "Hg10 mi
3:53 AM20 °FLow clouds.7 mph85%29.93 "Hg8 mi
2:53 AM19 °FLow clouds.7 mph88%29.93 "Hg7 mi
1:53 AM19 °FLow clouds.8 mph88%29.93 "Hg8 mi
12:53 AM20 °FLow clouds.10 mph85%29.89 "Hg9 mi
11:53 PM
Sat, Apr 25
20 °FIce fog.12 mph89%29.93 "Hg6 mi
10:53 PM21 °FIce fog.8 mph88%29.92 "Hg6 mi
9:53 PM22 °FLow clouds.8 mph89%29.92 "Hg7 mi
8:53 PM22 °FLow clouds.8 mph89%29.92 "Hg10 mi
7:53 PM22 °FLow clouds.7 mph89%29.89 "Hg10 mi
6:53 PM22 °FLow clouds.7 mph89%29.92 "Hg10 mi
5:53 PM22 °FLow clouds.5 mph92%29.91 "Hg10 mi
4:53 PM23 °FLow clouds.5 mph92%29.88 "Hg10 mi
3:53 PM23 °FLow clouds.3 mph92%29.91 "Hg9 mi
2:53 PM23 °FIce fog.5 mph92%29.91 "Hg4 mi
1:53 PM23 °FIce fog.6 mph88%29.91 "Hg1 mi
12:48 PM22 °FIce fog.5 mph89%29.92 "Hg3 mi
Weather by CustomWeather, © 2015

See weather overviewHow to use our weather pages